TimeEDT,TemperatureF,Dew PointF,Humidity,Sea Level PressureIn,VisibilityMPH,Wind Direction,Wind SpeedMPH,Gust SpeedMPH,PrecipitationIn,Events,Conditions,WindDirDegrees,DateUTC
12:53 AM,62.1,57.9,86,30.22,9.0,Calm,Calm,-,N/A,,Clear,0,2013-06-21 04:53:00
1:53 AM,59.0,57.9,96,30.23,5.0,Calm,Calm,-,N/A,,Clear,0,2013-06-21 05:53:00
2:53 AM,59.0,57.9,96,30.24,4.0,Calm,Calm,-,N/A,,Clear,0,2013-06-21 06:53:00
3:53 AM,59.0,57.0,93,30.24,5.0,Calm,Calm,-,N/A,,Clear,0,2013-06-21 07:53:00
4:53 AM,57.0,55.9,96,30.24,3.0,Calm,Calm,-,N/A,,Clear,0,2013-06-21 08:53:00
5:53 AM,57.9,55.9,93,30.26,4.0,Calm,Calm,-,N/A,,Clear,0,2013-06-21 09:53:00
6:01 AM,57.2,55.4,94,30.28,1.5,Calm,Calm,-,N/A,,Clear,0,2013-06-21 10:01:00
6:06 AM,57.2,55.4,94,30.28,4.0,Calm,Calm,-,N/A,,Clear,0,2013-06-21 10:06:00
6:53 AM,60.1,57.0,90,30.26,4.0,Calm,Calm,-,N/A,,Clear,0,2013-06-21 10:53:00
7:53 AM,63.0,59.0,87,30.27,7.0,Calm,Calm,-,N/A,,Clear,0,2013-06-21 11:53:00
8:53 AM,69.1,61.0,75,30.27,10.0,Calm,Calm,-,N/A,,Clear,0,2013-06-21 12:53:00
9:53 AM,73.0,62.1,68,30.26,10.0,South,4.6,-,N/A,,Clear,180,2013-06-21 13:53:00
10:53 AM,78.1,62.1,58,30.26,10.0,NW,3.5,-,N/A,,Clear,320,2013-06-21 14:53:00
11:53 AM,80.1,57.9,47,30.27,10.0,Variable,3.5,-,N/A,,Mostly Cloudy,0,2013-06-21 15:53:00
12:53 PM,81.0,59.0,47,30.25,10.0,NE,4.6,-,N/A,,Clear,40,2013-06-21 16:53:00
1:53 PM,82.9,57.9,42,30.27,10.0,Calm,Calm,-,N/A,,Scattered Clouds,0,2013-06-21 17:53:00
2:53 PM,82.9,57.9,42,30.25,10.0,SSE,3.5,-,N/A,,Unknown,150,2013-06-21 18:53:00
3:53 PM,84.0,55.9,38,30.23,10.0,Variable,4.6,-,N/A,,Clear,0,2013-06-21 19:53:00
4:53 PM,84.0,54.0,35,30.21,10.0,SE,3.5,-,N/A,,Clear,130,2013-06-21 20:53:00
5:53 PM,84.0,52.0,33,30.19,10.0,SW,4.6,-,N/A,,Clear,230,2013-06-21 21:53:00
6:53 PM,84.0,52.0,33,30.19,10.0,Calm,Calm,-,N/A,,Clear,0,2013-06-21 22:53:00
7:53 PM,82.0,57.0,42,30.19,10.0,Calm,Calm,-,N/A,,Clear,0,2013-06-21 23:53:00
8:53 PM,78.1,55.9,46,30.18,10.0,Calm,Calm,-,N/A,,Partly Cloudy,0,2013-06-22 00:53:00
9:53 PM,73.9,59.0,59,30.18,10.0,Calm,Calm,-,N/A,,Clear,0,2013-06-22 01:53:00
10:53 PM,70.0,59.0,68,30.21,10.0,Calm,Calm,-,N/A,,Clear,0,2013-06-22 02:53:00
11:53 PM,66.9,61.0,81,30.19,10.0,Calm,Calm,-,N/A,,Clear,0,2013-06-22 03:53:00